FW0248 Weather Reports


Display with metric or nautical units.
time (UTC)temp
F
wind
direction
speed
MPH
gust
MPH
rain 1hr
in
rain 24hr
in
rain mn
in
humidity
%
barometer
mb
20220705160211 84 183 1.0 4.0 0.00 0.00 0.00 81 1019.7
20220705155711 84 183 2.0 4.0 0.00 0.00 0.00 81 1019.8
20220705155210 83 183 2.0 4.0 0.00 0.00 0.00 81 1020.0
20220705154710 83 183 1.0 4.0 0.00 0.00 0.00 82 1019.9
20220705154211 83 183 1.0 4.0 0.00 0.00 0.00 83 1020.1
20220705153710 82 183 1.0 4.0 0.00 0.00 0.00 82 1020.2
20220705153211 82 183 1.0 4.0 0.00 0.00 0.00 84 1020.3
20220705152710 82 183 0.0 3.0 0.00 0.00 0.00 85 1020.2
20220705152210 81 183 1.0 4.0 0.00 0.00 0.00 86 1020.3
20220705151710 81 183 2.0 4.0 0.00 0.00 0.00 86 1020.4
20220705151211 81 183 1.0 4.0 0.00 0.00 0.00 85 1020.5
20220705150710 82 183 0.0 2.0 0.00 0.00 0.00 85 1020.5
20220705150210 82 183 0.0 2.0 0.00 0.00 0.00 85 1020.5
20220705145710 81 183 0.0 2.0 0.00 0.00 0.00 86 1020.6
20220705145210 80 183 0.0 3.0 0.00 0.00 0.00 88 1020.6
20220705144710 79 183 1.0 4.0 0.00 0.00 0.00 89 1020.6
20220705144210 78 183 1.0 4.0 0.00 0.00 0.00 89 1020.6
20220705143710 78 183 0.0 2.0 0.00 0.00 0.00 91 1020.5
20220705143211 78 183 0.0 2.0 0.00 0.00 0.00 91 1020.5
20220705142710 78 183 0.0 2.0 0.00 0.00 0.00 91 1020.7
20220705142210 78 183 0.0 2.0 0.00 0.00 0.00 92 1020.7
20220705141710 78 183 0.0 2.0 0.00 0.00 0.00 92 1020.7
20220705141210 77 183 0.0 1.0 0.00 0.00 0.00 92 1020.7
20220705140710 77 183 0.0 1.0 0.00 0.00 0.00 93 1020.8
20220705140211 77 183 0.0 2.0 0.00 0.00 0.00 93 1020.8
20220705135710 77 183 0.0 2.0 0.00 0.00 0.00 94 1020.9
20220705135211 76 183 1.0 3.0 0.00 0.00 0.00 94 1020.9
20220705134711 76 183 1.0 3.0 0.00 0.00 0.00 94 1020.8
20220705134210 76 183 0.0 2.0 0.00 0.00 0.00 94 1020.7
20220705133708 76 183 0.0 2.0 0.00 0.00 0.00 94 1021.0
20220705133208 76 183 0.0 1.0 0.00 0.00 0.00 95 1020.9
20220705132709 76 183 0.0 1.0 0.00 0.00 0.00 95 1020.9
20220705132208 76 183 0.0 2.0 0.00 0.00 0.00 96 1020.9
20220705131708 75 183 0.0 2.0 0.00 0.00 0.00 97 1020.8
20220705131207 75 183 0.0 2.0 0.00 0.00 0.00 98 1020.7
20220705130706 75 183 1.0 3.0 0.00 0.00 0.00 98 1020.7
20220705130205 74 183 1.0 3.0 0.00 0.00 0.00 99 1020.8
20220705125705 74 183 0.0 3.0 0.00 0.00 0.00 99 1020.7
20220705125203 74 183 0.0 2.0 0.00 0.00 0.00 99 1020.8
20220705124703 74 183 1.0 2.0 0.00 0.00 0.00 99 1020.8
20220705124201 73 183 1.0 2.0 0.00 0.00 0.00 99 1020.8
20220705123708 73 183 0.0 2.0 0.00 0.00 0.00 99 1020.7
20220705123201 73 183 0.0 2.0 0.00 0.00 0.00 99 1020.7
20220705122701 73 183 0.0 2.0 0.00 0.00 0.00 99 1020.8
20220705122201 73 183 1.0 2.0 0.00 0.00 0.00 99 1020.7
20220705121702 73 183 1.0 3.0 0.00 0.00 0.00 99 1020.7
20220705121201 73 183 1.0 3.0 0.00 0.00 0.00 99 1020.6
20220705120701 73 183 0.0 2.0 0.00 0.00 0.00 99 1020.7
20220705120201 0 0.0 0.0 0.00 0.00 0.00 1020.7
20220705115701 0 0.0 0.0 0.00 0.00 0.00 1020.6
20220705115202 0 0.0 0.0 0.00 0.00 0.00 1020.6
20220705114655 0 0.0 0.0 0.00 0.00 0.00 1020.8
20220705114101 0 0.0 0.0 0.00 0.00 0.00 1020.7
20220705113559 0 0.0 0.0 0.00 0.00 0.00 1020.7
20220705113057 0 0.0 0.0 0.00 0.00 0.00 1020.6
20220705112503 0 0.0 0.0 0.00 0.00 0.00 1020.7
20220705112002 0 0.0 0.0 0.00 0.00 0.00 1020.5
20220705111501 0 0.0 0.0 0.00 0.00 0.00 1020.5
20220705111001 0 0.0 0.0 0.00 0.00 0.00 1020.5
20220705110505 0 186 0.0 0.0 0.00 0.00 0.00 1020.4
20220705110000 0 186 0.0 2.0 0.00 0.00 0.00 1020.2
20220705105457 73 186 0.0 2.0 0.00 0.00 0.00 99 1020.2
20220705104957 73 186 0.0 2.0 0.00 0.00 0.00 99 1020.2
20220705104459 73 184 0.0 4.0 0.00 0.00 0.00 99 1020.1
20220705103957 73 183 1.0 4.0 0.00 0.00 0.00 99 1020.0
20220705103456 73 183 1.0 3.0 0.00 0.00 0.00 99 1020.0
20220705102955 73 183 1.0 3.0 0.00 0.00 0.00 99 1019.9
20220705102455 73 183 1.0 3.0 0.00 0.00 0.00 99 1019.9
20220705101955 73 183 1.0 3.0 0.00 0.00 0.00 99 1019.9
20220705101455 73 183 1.0 3.0 0.00 0.00 0.00 99 1020.0
20220705100955 73 183 0.0 2.0 0.00 0.00 0.00 99 1020.0
20220705100456 73 183 0.0 2.0 0.00 0.00 0.00 99 1019.9
20220705095955 73 183 0.0 2.0 0.00 0.00 0.00 99 1019.8
20220705095455 73 183 0.0 1.0 0.00 0.00 0.00 99 1019.7
20220705094953 73 183 1.0 4.0 0.00 0.00 0.00 99 1019.6
20220705094453 73 183 1.0 4.0 0.00 0.00 0.00 99 1019.6
20220705093953 73 183 0.0 3.0 0.00 0.00 0.00 99 1019.6
20220705093454 73 183 0.0 1.0 0.00 0.00 0.00 99 1019.7
20220705092952 73 183 1.0 2.0 0.00 0.00 0.00 99 1019.7
20220705092453 73 183 0.0 2.0 0.00 0.00 0.00 98 1019.8
20220705091951 73 183 0.0 0.0 0.00 0.00 0.00 98 1019.8
20220705091449 72 183 0.0 2.0 0.00 0.00 0.00 98 1019.7
20220705090949 72 183 0.0 2.0 0.00 0.00 0.00 98 1019.5
20220705090452 72 183 0.0 0.0 0.00 0.00 0.00 98 1019.4
20220705085948 72 183 0.0 0.0 0.00 0.00 0.00 98 1019.5
20220705085449 72 183 0.0 0.0 0.00 0.00 0.00 98 1019.6
20220705084949 72 183 0.0 0.0 0.00 0.00 0.00 98 1019.6
20220705084448 72 183 0.0 0.0 0.00 0.00 0.00 98 1019.6
20220705083946 72 183 0.0 0.0 0.00 0.00 0.00 98 1019.7
20220705083447 72 183 0.0 0.0 0.00 0.00 0.00 98 1019.8
20220705082947 72 183 0.0 0.0 0.00 0.00 0.00 98 1019.9
20220705082449 72 183 0.0 0.0 0.00 0.00 0.00 98 1019.9
20220705081945 72 183 0.0 0.0 0.00 0.00 0.00 98 1019.9
20220705081445 72 183 0.0 0.0 0.00 0.00 0.00 98 1019.8
20220705080945 72 183 0.0 0.0 0.00 0.00 0.00 98 1019.6
20220705080445 72 183 0.0 0.0 0.00 0.00 0.00 97 1019.6
20220705075944 72 183 0.0 0.0 0.00 0.00 0.00 98 1019.6
20220705075445 72 183 0.0 0.0 0.00 0.00 0.00 98 1019.5
20220705074945 72 183 0.0 0.0 0.00 0.00 0.00 97 1019.6
20220705074446 72 183 0.0 0.0 0.00 0.00 0.00 97 1019.6
20220705073949 72 183 0.0 0.0 0.00 0.00 0.00 97 1019.5
20220705073442 72 183 0.0 0.0 0.00 0.00 0.00 97 1019.7
20220705072941 72 183 0.0 0.0 0.00 0.00 0.00 97 1019.7
20220705072441 72 183 0.0 0.0 0.00 0.00 0.00 97 1019.9
20220705071940 73 183 0.0 0.0 0.00 0.00 0.00 97 1019.8
20220705071441 73 183 0.0 0.0 0.00 0.00 0.00 97 1019.8
20220705070941 73 183 0.0 0.0 0.00 0.00 0.00 97 1020.0
20220705070440 73 183 0.0 0.0 0.00 0.00 0.00 97 1020.0
20220705065940 73 183 0.0 0.0 0.00 0.00 0.00 97 1020.0
20220705065441 73 183 0.0 0.0 0.00 0.00 0.00 97 1019.9
20220705064940 73 183 0.0 0.0 0.00 0.00 0.00 97 1020.0
20220705064441 73 183 0.0 0.0 0.00 0.00 0.00 97 1020.0
20220705063942 73 183 0.0 0.0 0.00 0.00 0.00 97 1019.9
20220705063441 73 183 0.0 0.0 0.00 0.00 0.00 97 1020.0
20220705062940 73 183 0.0 0.0 0.00 0.00 0.00 97 1020.0
20220705062440 73 183 0.0 0.0 0.00 0.00 0.00 97 1020.1
20220705061940 73 183 0.0 0.0 0.00 0.00 0.00 97 1020.1
20220705061440 73 183 0.0 0.0 0.00 0.00 0.00 97 1020.2
20220705060941 73 183 0.0 0.0 0.00 0.00 0.00 97 1020.3
20220705060440 73 183 0.0 0.0 0.00 0.00 0.00 97 1020.4
20220705055941 73 183 0.0 0.0 0.00 0.00 0.00 97 1020.3
20220705055441 73 183 0.0 0.0 0.00 0.00 0.00 97 1020.5
20220705054940 73 183 0.0 0.0 0.00 0.00 0.00 97 1020.6
20220705054441 73 183 0.0 0.0 0.00 0.00 0.00 97 1020.6
20220705053941 73 183 0.0 0.0 0.00 0.00 0.00 97 1020.6
20220705053441 73 183 0.0 0.0 0.00 0.00 0.00 97 1020.5
20220705052940 73 183 0.0 0.0 0.00 0.00 0.00 97 1020.5
20220705052441 73 183 0.0 0.0 0.00 0.00 0.00 97 1020.6
20220705051940 73 183 0.0 0.0 0.00 0.00 0.00 97 1020.7
20220705051440 73 183 0.0 0.0 0.00 0.00 0.00 97 1020.7
20220705050938 73 183 0.0 0.0 0.00 0.00 0.00 96 1020.9
20220705050438 73 183 0.0 0.0 0.00 0.00 0.00 96 1021.0
20220705045938 73 183 0.0 0.0 0.00 0.00 0.00 96 1021.0
20220705045438 73 183 0.0 0.0 0.00 0.00 0.00 96 1021.0
20220705044938 74 183 0.0 0.0 0.00 0.00 0.00 96 1021.0
20220705044438 74 183 0.0 0.0 0.00 0.00 0.00 96 1021.2
20220705043938 74 183 0.0 0.0 0.00 0.00 0.00 96 1021.2
20220705043438 74 183 0.0 0.0 0.00 0.00 0.00 96 1021.3
20220705042938 74 183 0.0 0.0 0.00 0.00 0.00 96 1021.4
20220705042438 74 183 0.0 0.0 0.00 0.00 0.00 96 1021.2
20220705041938 74 183 0.0 0.0 0.00 0.00 0.00 96 1021.2
20220705041438 74 183 0.0 0.0 0.00 0.00 0.00 96 1021.2
20220705040938 74 183 0.0 0.0 0.00 0.00 0.00 95 1021.3
20220705040439 74 183 0.0 0.0 0.00 0.00 0.00 95 1021.3
20220705035938 74 183 0.0 0.0 0.00 0.00 0.00 95 1021.2
20220705035439 74 183 0.0 0.0 0.00 0.00 0.00 95 1021.2
20220705034938 74 183 0.0 0.0 0.00 0.00 0.00 95 1021.0
20220705034438 74 183 0.0 0.0 0.00 0.00 0.00 95 1020.9
20220705033934 74 183 0.0 0.0 0.00 0.00 0.00 95 1020.7
20220705033434 75 183 0.0 0.0 0.00 0.00 0.00 94 1020.7
20220705032934 75 183 0.0 0.0 0.00 0.00 0.00 94 1020.7
20220705032432 75 183 0.0 0.0 0.00 0.00 0.00 94 1020.6
20220705031932 75 183 0.0 0.0 0.00 0.00 0.00 94 1020.5
20220705031434 75 183 0.0 0.0 0.00 0.00 0.00 94 1020.6
20220705030932 75 183 0.0 0.0 0.00 0.00 0.00 94 1020.6
20220705030432 75 183 0.0 0.0 0.00 0.00 0.00 93 1020.6
20220705025932 76 183 0.0 0.0 0.00 0.00 0.00 94 1020.5
20220705025432 76 183 0.0 0.0 0.00 0.00 0.00 93 1020.6
20220705024932 76 183 0.0 0.0 0.00 0.00 0.00 93 1020.7
20220705024432 76 183 0.0 0.0 0.00 0.00 0.00 93 1020.6
20220705023933 76 183 0.0 0.0 0.00 0.00 0.00 93 1020.6
20220705023431 76 183 0.0 0.0 0.00 0.00 0.00 93 1020.5
20220705022930 76 183 0.0 0.0 0.00 0.00 0.00 93 1020.5
20220705022430 76 183 0.0 1.0 0.00 0.00 0.00 93 1020.4
20220705021930 76 183 0.0 1.0 0.00 0.00 0.00 93 1020.5
20220705021430 76 183 0.0 0.0 0.00 0.00 0.00 93 1020.5
20220705020930 76 183 0.0 0.0 0.00 0.00 0.00 93 1020.2
20220705020431 76 183 0.0 0.0 0.00 0.00 0.00 93 1020.2
20220705015932 76 183 0.0 0.0 0.00 0.00 0.00 93 1020.1
20220705015430 76 183 0.0 0.0 0.00 0.00 0.00 92 1020.1
20220705014930 77 183 0.0 0.0 0.00 0.00 0.00 92 1019.9
20220705014430 77 183 0.0 1.0 0.00 0.00 0.00 92 1019.7
20220705013928 77 183 0.0 1.0 0.00 0.00 0.00 92 1019.7
20220705013428 77 183 0.0 0.0 0.00 0.00 0.00 92 1019.7
20220705012928 77 183 0.0 0.0 0.00 0.00 0.00 91 1019.7
20220705012428 78 183 0.0 0.0 0.00 0.00 0.00 91 1019.6
20220705011929 78 183 0.0 0.0 0.00 0.00 0.00 91 1019.7
20220705011428 78 183 0.0 0.0 0.00 0.00 0.00 91 1019.6
20220705010927 78 183 0.0 1.0 0.00 0.00 0.00 91 1019.5
20220705010426 78 183 0.0 1.0 0.00 0.00 0.00 91 1019.6
20220705005926 78 183 0.0 1.0 0.00 0.00 0.00 91 1019.7
20220705005426 78 183 0.0 2.0 0.00 0.00 0.00 90 1019.7
20220705004926 78 183 1.0 2.0 0.00 0.00 0.00 90 1019.6
20220705004425 78 183 0.0 2.0 0.00 0.00 0.00 89 1019.7
20220705003927 78 183 0.0 2.0 0.00 0.00 0.00 89 1019.7
20220705003426 79 183 1.0 6.0 0.00 0.00 0.00 89 1019.7
20220705002924 79 183 3.0 6.0 0.00 0.00 0.00 88 1019.8
20220705002422 79 183 3.0 7.0 0.00 0.00 0.00 88 1019.9
20220705001922 79 183 4.0 9.0 0.00 0.00 0.00 88 1019.8
20220705001422 80 183 5.0 9.0 0.00 0.00 0.00 87 1019.9
20220705000922 80 185 5.0 9.0 0.00 0.00 0.00 87 1019.9
20220705000422 81 185 4.0 10.0 0.00 0.00 0.00 87 1019.9
20220704235922 81 183 4.0 10.0 0.00 0.00 0.00 86 1020.0
20220704235423 82 183 4.0 9.0 0.00 0.00 0.00 86 1020.2
20220704234922 82 182 4.0 9.0 0.00 0.00 0.00 85 1020.2
20220704234422 82 182 4.0 9.0 0.00 0.00 0.00 85 1020.2
20220704233922 82 181 3.0 6.0 0.00 0.00 0.00 84 1020.2
20220704233422 82 181 3.0 9.0 0.00 0.00 0.00 84 1020.1
20220704232920 82 181 4.0 9.0 0.00 0.00 0.00 84 1019.9
20220704232418 83 179 4.0 10.0 0.00 0.00 0.00 82 1020.0
20220704231918 83 179 4.0 10.0 0.00 0.00 0.00 82 1020.0
20220704231418 83 180 4.0 7.0 0.00 0.00 0.00 82 1019.9
20220704230917 83 180 4.0 8.0 0.00 0.00 0.00 82 1019.8
20220704230419 84 178 3.0 8.0 0.00 0.00 0.00 80 1019.6
20220704225918 84 176 3.0 8.0 0.00 0.00 0.00 79 1019.6
20220704225418 85 176 2.0 6.0 0.00 0.00 0.00 79 1019.5
20220704224918 85 176 2.0 5.0 0.00 0.00 0.00 79 1019.4
20220704224418 85 176 2.0 4.0 0.00 0.00 0.00 78 1019.1
20220704223918 86 176 2.0 4.0 0.00 0.00 0.00 77 1019.2
20220704223418 86 176 2.0 4.0 0.00 0.00 0.00 77 1019.0
20220704222918 86 176 1.0 3.0 0.00 0.00 0.00 75 1019.0
20220704222419 86 176 2.0 4.0 0.00 0.00 0.00 75 1019.1
20220704221918 85 176 2.0 5.0 0.00 0.00 0.00 74 1019.2
20220704221418 85 176 3.0 7.0 0.00 0.00 0.00 74 1019.2
20220704220918 85 176 3.0 7.0 0.00 0.00 0.00 74 1019.2
20220704220418 85 176 3.0 6.0 0.00 0.00 0.00 73 1019.3
20220704215917 86 176 3.0 8.0 0.00 0.00 0.00 74 1019.3
20220704215417 86 176 4.0 9.0 0.00 0.00 0.00 73 1019.3
20220704214917 86 176 3.0 9.0 0.00 0.00 0.00 74 1019.2
20220704214417 87 177 3.0 10.0 0.00 0.00 0.00 74 1019.2
20220704213917 87 177 4.0 10.0 0.00 0.00 0.00 73 1019.3
20220704213418 89 174 3.0 8.0 0.00 0.00 0.00 72 1019.3
20220704212917 90 174 1.0 6.0 0.00 0.00 0.00 70 1019.2
20220704212417 90 174 1.0 7.0 0.00 0.00 0.00 71 1019.1
20220704211918 89 174 2.0 7.0 0.00 0.00 0.00 72 1019.2
20220704211418 90 174 1.0 3.0 0.00 0.00 0.00 72 1019.3
20220704210917 89 174 1.0 4.0 0.00 0.00 0.00 73 1019.2
20220704210417 88 174 1.0 4.0 0.00 0.00 0.00 75 1019.3
20220704205918 88 174 2.0 8.0 0.00 0.00 0.00 78 1019.3
20220704205417 87 174 2.0 8.0 0.00 0.00 0.00 80 1019.2
20220704204917 86 179 1.0 4.0 0.00 0.00 0.00 82 1019.2
20220704204417 85 179 2.0 5.0 0.00 0.00 0.00 84 1019.3
20220704203918 85 179 2.0 5.0 0.00 0.00 0.00 84 1019.3
20220704203418 85 179 2.0 4.0 0.00 0.00 0.00 83 1019.5
20220704202917 85 179 2.0 4.0 0.00 0.00 0.00 84 1019.4
20220704202417 85 179 2.0 4.0 0.00 0.00 0.00 83 1019.4
20220704201917 85 179 1.0 4.0 0.00 0.00 0.00 83 1019.4
20220704201418 85 179 1.0 3.0 0.00 0.00 0.00 83 1019.4
20220704200917 84 179 2.0 3.0 0.00 0.00 0.00 83 1019.5
20220704200416 83 179 2.0 4.0 0.00 0.00 0.00 85 1019.5
20220704195915 83 179 2.0 4.0 0.00 0.00 0.00 85 1019.6
20220704195415 83 179 2.0 5.0 0.00 0.00 0.00 84 1019.5
20220704194915 83 179 2.0 6.0 0.00 0.00 0.00 85 1019.6
20220704194415 83 179 3.0 8.0 0.00 0.00 0.00 86 1019.8
20220704193913 83 179 4.0 8.0 0.00 0.00 0.00 86 1019.7
20220704193413 83 179 3.0 7.0 0.00 0.00 0.00 84 1019.6
20220704192911 85 179 2.0 8.0 0.00 0.00 0.00 82 1019.6
20220704192411 87 178 1.0 8.0 0.00 0.00 0.00 76 1019.7
20220704191911 90 177 0.0 2.0 0.00 0.00 0.00 73 1019.5
20220704191411 90 177 0.0 4.0 0.00 0.00 0.00 67 1019.6
20220704190912 90 177 0.0 4.0 0.00 0.00 0.00 67 1019.7
20220704190412 91 178 0.0 3.0 0.00 0.00 0.00 66 1019.7
20220704185911 90 177 2.0 6.0 0.00 0.00 0.00 68 1019.6
20220704185411 90 178 3.0 8.0 0.00 0.00 0.00 67 1019.6
20220704184909 90 177 2.0 8.0 0.00 0.00 0.00 66 1019.7
20220704184409 91 178 2.0 7.0 0.00 0.00 0.00 67 1019.7
20220704183910 90 178 3.0 7.0 0.00 0.00 0.00 69 1019.8
20220704183409 90 178 2.0 6.0 0.00 0.00 0.00 68 1019.8
20220704182907 90 178 2.0 7.0 0.00 0.00 0.00 68 1019.9
20220704182406 90 178 3.0 10.0 0.00 0.00 0.00 68 1020.0
20220704181906 90 178 2.0 10.0 0.00 0.00 0.00 69 1020.0
20220704181405 89 182 2.0 6.0 0.00 0.00 0.00 71 1020.2
20220704180904 89 182 2.0 6.0 0.00 0.00 0.00 70 1020.2
20220704180403 88 182 2.0 6.0 0.00 0.00 0.00 73 1020.1
20220704175904 87 182 2.0 6.0 0.00 0.00 0.00 74 1020.2
20220704175403 87 182 1.0 4.0 0.00 0.00 0.00 76 1020.4
20220704174903 86 182 2.0 5.0 0.00 0.00 0.00 77 1020.4
20220704174404 85 182 2.0 5.0 0.00 0.00 0.00 77 1020.5
20220704173903 85 182 1.0 5.0 0.00 0.00 0.00 77 1020.6
20220704173403 85 182 2.0 5.0 0.00 0.00 0.00 77 1020.7
20220704172903 85 182 3.0 8.0 0.00 0.00 0.00 76 1020.8
20220704172403 86 182 3.0 8.0 0.00 0.00 0.00 77 1020.9
20220704171901 86 183 2.0 6.0 0.00 0.00 0.00 77 1021.2
20220704171400 86 183 1.0 6.0 0.00 0.00 0.00 78 1021.3
20220704170902 85 183 2.0 6.0 0.00 0.00 0.00 77 1021.3
20220704170401 85 183 2.0 6.0 0.00 0.00 0.00 77 1021.3
20220704165900 85 183 2.0 5.0 0.00 0.00 0.00 77 1021.5
20220704165359 86 183 2.0 6.0 0.00 0.00 0.00 76 1021.5
20220704164858 86 183 1.0 6.0 0.00 0.00 0.00 77 1021.4
20220704164400 85 183 1.0 5.0 0.00 0.00 0.00 78 1021.4
20220704163859 85 183 2.0 5.0 0.00 0.00 0.00 77 1021.6
20220704163359 86 183 2.0 5.0 0.00 0.00 0.00 77 1021.6
20220704162901 85 183 3.0 7.0 0.00 0.00 0.00 77 1021.7
20220704162359 85 183 2.0 7.0 0.00 0.00 0.00 76 1021.7
20220704161859 86 182 1.0 7.0 0.00 0.00 0.00 75 1021.6
20220704161358 86 183 1.0 4.0 0.00 0.00 0.00 75 1021.7
20220704160859 86 183 2.0 7.0 0.00 0.00 0.00 77 1021.6
20220704160357 85 183 2.0 7.0 0.00 0.00 0.00 78 1021.6